Regional Weather Roundup
Issued by NWS

Home | Current Version | Previous Version | Text Only | Print | Product List | Glossary Off
Versions: 1 2 3 4 5 6 7 8 9 10 11 12 13 14 15 16 17 18 19 20 21 22 23 24 25 26 27 28 29 30 31 32 33 34 35 36 37 38 39 40 41 42 43 44 45 46 47 48 49 50

662
ASUS45 KABQ 281110
RWRNM
NEW MEXICO REGIONAL WEATHER ROUNDUP
NATIONAL WEATHER SERVICE ALBUQUERQUE NM
500 AM MDT SUN MAY 28 2017

NOTE: "FAIR" MEANS FEW OR NO CLOUDS BELOW 12,000 FEET AGL WITH NO
       SIGNIFICANT WEATHER OR OBSTRUCTIONS TO VISION.

      THIS PRODUCT IS RELEASED AS TWO VERSIONS.  ONE VERSION NEAR
      THE TOP OF THE HOUR CONTAINING PRELIMINARY DATA FROM ALBUQUERQUE
      AND OTHER STATIONS.  A FINAL VERSION WITH ADDITIONAL DATA IS
      ISSUED ABOUT 10 MINUTES AFTER THE HOUR.

NMZ501-503-504-510>518-281200-
NORTHWEST PLATEAU/NORTHCENTRAL MOUNTAINS

CITY           SKY/WX    TMP DP  RH WIND       PRES   REMARKS
FARMINGTON     FAIR      42  24  49 NE9       30.20R
LOS ALAMOS     FAIR      51  27  40 N10       30.30R
SANTA FE       FAIR      47  40  76 SE6       30.25R
TAOS           FAIR      41  25  52 N8        30.31R
ANGEL FIRE     FAIR      30  28  92 CALM      30.35R

$$
NMZ402-403-502-505>509-281200-
WESTCENTRAL MOUNTAINS/SOUTHWEST MOUNTAINS

CITY           SKY/WX    TMP DP  RH WIND       PRES   REMARKS
GALLUP         FAIR      45  18  34 NE5       30.24R
GRANTS         FAIR      39  18  43 NW6       30.26S WCI  35
SILVER CITY    FAIR      49  10  20 N9        30.12R

$$
NMZ407-409-411-412-281200-
SOUTHERN DESERTS

CITY           SKY/WX    TMP DP  RH WIND       PRES   REMARKS
DEMING         FAIR      48  14  25 CALM      30.06S
LAS CRUCES     FAIR      59   8  13 W5        30.06R
HOLLOMAN AFB   FAIR      58  10  14 E9        30.07R
ALAMOGORDO     FAIR      57   9  14 S7        30.05R
T OR C         LGT RAIN  60  40  47 N17G29    30.11R

$$
NMZ519>523-281200-
CENTRAL VALLEYS/CENTRAL HIGHLANDS

CITY           SKY/WX    TMP DP  RH WIND       PRES   REMARKS
ALBUQUERQUE    FAIR      60  27  28 CALM      30.19R
DOUBLE EAGLE   FAIR      49  26  41 NW9       30.21R
MORIARTY ARPT  FAIR      44  38  81 SW7       30.29R
CLINES CORNERS FAIR      42  36  79 E10       30.30R
BELEN          FAIR      49  31  49 W8        30.18R
SOCORRO        FAIR      56  37  49 CALM      30.18R

$$
NMZ524>526-539-540-281200-
SOUTHCENTRAL MOUNTAINS

CITY           SKY/WX    TMP DP  RH WIND       PRES   REMARKS
RUIDOSO        FAIR      45  37  76 S9        30.32R

$$
NMZ527>531-281200-
NORTHEAST HIGHLANDS/NORTHEAST PLAINS

CITY           SKY/WX    TMP DP  RH WIND       PRES   REMARKS
LAS VEGAS      FAIR      37  34  89 N10       30.29R WCI  30
RATON          FAIR      45  32  60 N9        30.27R
CLAYTON        FAIR      47  41  80 NW16      30.20R

$$
NMZ532>537-281200-
EASTCENTRAL PLAINS

CITY           SKY/WX    TMP DP  RH WIND       PRES   REMARKS
SANTA ROSA     FAIR      48  40  74 NW7       30.21R
TUCUMCARI      FAIR      50  41  71 N8        30.17R
CANNON AFB     FAIR      52  42  69 NE14      30.18R
CLOVIS AIRPORT FAIR      52  39  62 N14       30.18R

$$
NMZ028-029-538-281200-
SOUTHEAST PLAINS

CITY           SKY/WX    TMP DP  RH WIND       PRES   REMARKS
ROSWELL        FAIR      58  41  53 NW6       30.20R
ARTESIA        FAIR      59  43  55 NW13      30.19R
CARLSBAD       FAIR      62  46  55 NW22G31   30.14R
HOBBS          FAIR      57  45  62 N17G28    30.11R


$$




USA.gov is the U.S. government's official web portal to all federal, state and local government web resources and services.